Location: Grand Rapids
(42.9630°N, 85.6680°W)
Time: 01:25:07
(UTC-04:00)

S-56A Canister/Altair - Pass Details

Date: 01 June 2024
Orbit: 637 x 2489 km, 38.9° (Epoch: 21 June)

Event Time Altitude Azimuth Distance (km) Brightness Sun altitude
Rises 05:22:05 0° 241° (WSW) 6,102 - -7.4°
Exits shadow 05:24:54 - 240° (WSW) 5,420 11.2 -7.0°
Reaches altitude 10° 05:26:04 10° 239° (WSW) 5,139 11.1 -6.8°
Maximum altitude 05:40:52 65° 163° (SSE) 2,495 10.0 -4.7°
Drops below altitude 10° 05:52:53 10° 86° (E) 4,256 12.5 -2.9°
Sets 05:55:51 0° 83° (E) 5,034 13.0 -2.4°
